Tracking 33165 objects as of 7-Feb-2026
HD Live streaming from Space Station
objects crossing your sky now

GLOBALSTAR M003

Track GLOBALSTAR M003 now!
10-day predictions
GLOBALSTAR M003 is classified as:


NORAD ID: 25165
Int'l Code: 1998-008D
Perigee: 1,627.4 km
Apogee: 1,641.7 km
Inclination: 52.0 °
Period: 118.8 minutes
Semi major axis: 8005 km
RCS: 2.2435 m2 (large)
Launch date: February 14, 1998
Source: Globalstar (GLOB)
Launch site: AIR FORCE EASTERN TEST RANGE (AFETR)
Your satellite tracking list
Your tracking list is empty




NASA's NSSDC Master Catalog

Two Line Element Set (TLE):
1 25165U 98008D   26038.08645788 -.00000198  00000-0 -11544-2 0  9996
2 25165  51.9849 237.9084 0008926  48.7658  98.8891 12.12029966261700
Source of the keplerian elements: AFSPC